GFSGBSN_850_dewp_204.txt.gz
Dewpoint
-5 -2 -2 -1 -1 -1 -1 -1 -0 -1 -1 -1 -2 -2 -2 -3 -2 -2 -2 2 6 6 5 5 5 4 3 3 3 1 0 -0 0 -0 -0 -1 -1 -1 -1 -2 -2 -2 -3 -3 -2 -2 -3
-5 -4 -3 -2 -2 -1 -1 -2 -1 -2 -2 -2 -2 -2 -2 -2 -0 2 3 6 6 6 5 5 4 4 3 3 2 1 -0 0 0 0 -0 -0 -0 -1 -1 -1 -1 -1 -2 -2 -2 -3 -2
0 -2 -3 -4 -4 -3 -2 -2 -2 -2 -2 -2 -2 -3 -2 -1 2 4 6 7 6 5 5 4 4 2 2 3 1 1 -0 -1 -1 -1 -0 0 0 -0 -1 -1 -1 -1 -1 -3 -3 -3 -4
3 -0 0 -0 -3 -4 -3 -2 -3 -2 -2 -3 -2 -3 -1 0 3 6 6 6 5 5 5 4 3 2 3 1 1 1 1 -1 -1 -2 -1 -1 -0 0 -0 -1 -1 -1 -1 -1 -2 -2 -4
3 1 1 1 1 -0 -3 -4 -4 -4 -3 -3 -3 -3 -1 3 5 7 7 6 5 5 4 4 3 2 3 2 1 1 -0 0 -0 -1 -1 -1 0 0 -0 -1 -1 0 -3 -2 -3 -2 -2
8 6 0 1 2 2 1 -2 -4 -4 -4 -3 -3 -3 0 5 7 7 7 6 5 4 3 4 3 5 3 3 2 1 0 0 0 -0 -0 0 0 0 -0 -1 -1 -3 -3 -4 -2 -3 -1
6 6 8 3 1 2 3 0 -2 -3 -4 -4 -3 -2 2 6 7 8 8 6 6 5 5 4 4 3 3 2 1 -1 -1 -2 -1 -1 0 -0 0 0 -2 -2 -2 -1 -1 -1 -3 -4 -2
9 8 7 8 7 1 2 3 1 -1 -2 -2 -2 0 4 7 8 8 8 8 6 4 4 4 3 2 -1 -1 -1 -2 -5 -4 -3 -1 -1 0 -0 -3 -2 -1 -0 -0 -0 -1 -3 -2 -1
11 11 8 8 7 8 2 2 4 2 0 1 1 3 6 8 9 9 9 7 5 2 5 3 -0 -2 -2 -2 -2 -3 -2 -2 -3 -1 -1 -2 -2 -2 -1 -1 0 -0 1 -0 -0 -2 -4
10 10 11 10 8 7 9 4 3 4 3 3 4 6 7 8 9 9 8 6 7 5 7 4 -3 -1 -1 -2 -2 -3 -3 -3 -3 -2 -2 -1 -2 -2 -2 -1 -2 -2 -3 -2 -2 -3 -4
10 11 10 10 11 9 7 8 7 4 5 6 7 7 8 9 10 9 8 8 5 4 12 1 -2 -2 -2 -3 -3 -4 -3 -3 -5 -3 -2 -3 -2 -2 -3 -5 -3 -5 -4 -5 -5 -5 -4
10 10 10 10 11 11 11 8 7 8 5 7 9 9 8 9 9 9 10 9 4 7 10 4 -4 -3 -3 -3 -4 -5 -4 -4 -4 -4 -4 -5 -5 -5 -7 -8 -6 -7 -6 -7 -6 -5 -4
8 9 10 10 10 10 11 11 10 10 8 6 8 9 10 9 9 9 9 4 9 9 4 3 -2 -4 -4 -4 -5 -5 -4 -3 -4 -2 -0 -4 -5 -6 -5 -5 -7 -6 -6 -3 -2 -1 -2
4 5 8 9 10 10 10 10 10 10 10 8 8 8 9 10 10 9 9 7 10 7 6 -5 -6 -5 -3 -4 -4 -6 -5 -3 -4 -5 -3 -1 1 -6 -8 -7 -7 -6 -6 -2 0 -0 -2
2 1 1 4 8 9 9 10 10 10 10 10 9 10 9 9 9 9 8 8 9 7 5 -0 -4 -3 -1 -7 -5 -4 -4 -2 -4 -5 -1 0 -2 -8 -8 -8 -8 -5 -5 -6 -2 -3 -1
-7 -2 -2 -7 1 5 9 9 9 9 10 10 10 9 9 9 9 9 8 9 8 5 3 1 6 4 4 1 -4 -4 0 -4 -6 -8 -6 -5 -2 -7 -8 -8 -8 -7 -8 -3 -4 -1 -0
-10 -10 -11 -9 -12 -4 1 6 8 8 9 10 9 8 8 9 9 7 8 8 7 6 3 2 4 7 5 5 -2 -1 0 -1 -6 -7 -8 -7 -5 -3 -7 -6 -6 -6 -6 -6 -5 -4 -1
-9 -10 -12 -13 -19 -17 -8 -0 5 7 9 9 7 7 7 8 6 6 7 6 5 2 0 1 1 2 5 5 2 2 3 1 -5 -7 -5 -6 -4 -2 -4 -8 -8 -8 -6 -6 -2 -1 -2
-7 -6 -4 -8 -9 -17 -19 -11 1 6 8 8 7 6 5 6 7 6 6 5 4 3 2 2 3 1 1 2 6 5 4 -2 -6 -5 -4 -4 -2 1 2 -3 -5 -4 -5 -5 -5 -3 -0
-5 -1 -0 -3 -6 -8 -17 -21 -9 3 6 7 5 3 4 5 5 6 6 6 5 3 2 1 3 2 3 4 3 5 4 1 -3 -4 -2 -1 0 2 5 3 1 -2 -5 -6 -4 1 1
-1 -0 0 -2 -3 -5 -10 -15 -18 -1 5 7 5 3 2 4 4 5 5 5 6 5 3 2 3 3 4 6 5 5 4 3 3 1 1 2 5 2 1 -0 -0 -1 -2 -3 -1 0 2
-2 -1 0 -0 -0 -0 -5 -12 -6 5 7 7 4 3 3 3 3 5 5 6 6 5 3 4 4 3 4 6 5 5 4 4 3 3 2 2 4 1 3 0 -1 -1 -2 -3 -3 -3 -3
0 -0 -0 -0 0 0 -1 -2 -4 2 5 6 5 5 4 3 4 5 5 5 5 4 4 3 3 4 4 3 3 3 2 2 3 4 4 4 4 4 4 -2 -2 1 -2 -3 -4 -4 -4
-0 -1 -1 0 0 0 -1 -2 -2 -1 4 5 5 5 4 3 4 4 4 4 5 5 5 3 3 3 2 3 2 2 2 2 3 3 3 4 4 4 3 -1 3 -4 -6 -6 -5 -5 -6
-1 -2 -1 0 0 -0 -1 -2 -2 -0 1 4 5 5 5 4 3 4 3 4 3 3 2 1 1 2 2 2 3 3 3 3 3 3 3 3 4 4 3 1 -3 -6 -7 -6 -5 -5 -1
-0 -2 -3 -0 0 -0 -1 -2 -3 -2 0 5 5 5 6 3 3 3 3 3 2 2 1 -0 1 2 2 2 3 4 2 -0 -1 -1 -1 2 2 4 2 2 -2 -4 -2 -2 -2 -2 -3
-1 -1 -2 -3 -3 -2 -2 -2 -2 -2 -1 1 4 5 6 2 3 3 3 2 2 1 2 0 1 1 1 3 3 2 2 -3 -1 -3 1 2 3 3 2 2 -2 -7 -3 -2 -0 -4 -6
-2 -1 -0 -1 -2 -2 -2 -2 -3 -6 -3 1 4 4 5 2 1 2 2 1 1 1 2 -0 1 1 2 3 3 2 0 -1 -2 -5 -2 0 1 1 1 1 1 -6 -5 -2 -4 -5 -6
-2 -2 -1 -1 -1 -1 -2 -2 -3 -4 -4 -1 3 4 4 3 -1 0 1 1 2 1 0 1 1 -0 0 1 1 -0 0 0 -1 -1 -4 -2 -4 -3 0 -4 -3 -4 -4 -5 -6 -6 -6

GFSGBSN_850_dewp_210.txt.gz
Dewpoint
-1 -1 -1 0 0 0 0 1 1 0 -0 -1 -1 -2 -3 -3 -1 1 3 5 5 4 4 4 3 3 3 5 3 2 2 1 -1 1 0 -0 -1 -1 -1 -2 -4 -3 -4 -4 -5 -5 -5
-4 -3 -1 -1 -0 -0 -0 -1 -0 -1 -1 -1 -1 -2 -3 -3 -1 2 4 4 5 4 3 3 3 3 4 5 3 2 2 1 -0 -0 0 -1 -0 -1 -2 -2 -2 -3 -3 -3 -3 -4 -4
-5 -6 -5 -3 -2 -1 -1 -1 -1 -1 -1 -2 -2 -3 -3 -3 -2 1 4 4 4 4 3 3 3 3 6 5 3 2 2 1 -1 -1 -0 -0 -0 -0 -0 0 -1 -2 -1 -3 -4 -4 -4
-1 -2 -2 -4 -4 -3 -1 -2 -1 -2 -2 -2 -2 -2 -3 -3 -2 1 4 5 4 4 4 4 4 4 7 4 0 2 1 -0 -1 -1 -1 -1 -1 -0 -0 -0 -1 -1 -2 0 -4 -5 -4
-2 -0 -1 0 -3 -2 -3 -4 -4 -3 -3 -1 -2 -3 -3 -3 -3 -0 4 5 4 4 5 4 5 7 6 3 2 1 1 0 -0 0 -0 -0 0 0 -0 1 1 1 1 -1 -4 -5 -4
3 1 -1 2 0 -0 -0 0 -2 -2 -3 -1 -2 -3 -3 -4 -3 -1 4 5 4 6 6 5 5 5 6 3 3 2 1 1 1 1 1 0 0 1 1 1 3 1 -0 -2 -4 -5 -3
7 5 5 2 1 3 -0 1 1 3 -1 -3 -2 -2 -3 -3 -3 0 6 6 7 6 6 6 4 4 4 4 2 0 1 2 1 1 2 0 2 2 0 -2 -2 -3 -4 -4 -5 -7 -5
6 6 7 7 5 4 2 1 2 2 4 2 -1 -1 -2 -3 -2 2 7 10 7 6 7 6 5 5 2 -0 -2 -3 -3 -3 -2 0 -1 1 3 -1 -4 -5 -4 -3 -2 -2 -3 -5 -4
9 9 6 6 8 8 6 3 2 3 2 5 2 1 -1 -2 -0 3 8 10 7 7 7 5 3 2 -2 -2 -2 -3 -4 -3 -2 -1 -1 2 -1 -4 -4 -4 -3 -3 -1 -2 -3 -4 -4
8 9 9 8 7 7 7 7 6 3 2 4 5 3 2 1 2 7 10 8 7 7 8 4 1 -2 -2 -1 -2 -3 -3 -3 -4 -2 -3 -2 -4 -3 -4 -2 -3 -1 -4 -3 -4 -2 0
7 8 8 10 10 10 7 6 7 8 4 3 5 5 3 2 9 10 8 8 8 8 11 2 -1 -1 -3 -2 -4 -3 -3 -4 -3 -3 -3 -1 -2 -3 -2 -1 -3 -2 -6 -4 -4 -3 -1
9 9 8 10 10 10 9 9 8 7 8 7 5 7 6 6 6 10 8 8 8 10 11 5 0 -1 -1 -3 -4 -4 -4 -4 -4 -4 -3 -2 -4 -3 -4 -4 -5 -6 -5 -4 -2 -1 3
10 10 10 10 10 10 11 10 11 9 8 9 7 6 8 7 8 8 8 8 11 12 4 5 4 -1 -2 -2 -3 -5 -3 -2 -0 2 3 0 -0 -2 -4 -2 -3 -3 -2 2 3 5 4
9 9 9 10 10 10 11 11 10 11 9 9 9 8 7 9 9 9 9 9 10 8 7 2 -0 1 1 -0 -1 -2 -2 0 -1 0 2 2 4 -1 -3 -2 -2 -2 -1 3 5 5 3
7 7 8 7 8 7 10 10 11 11 11 10 10 9 9 8 9 9 9 10 10 8 6 6 5 3 2 0 -0 1 2 2 2 1 4 4 3 -2 -4 -4 -5 -2 -1 -2 2 1 3
4 5 6 6 7 7 7 8 10 10 10 11 10 10 9 9 8 9 9 10 8 5 5 5 8 5 6 4 4 5 3 1 1 -0 -0 2 5 0 -1 -4 -5 -3 -4 0 1 4 5
2 3 4 5 6 6 7 7 6 9 9 9 9 7 8 9 9 8 9 8 7 5 5 7 7 7 6 5 5 6 5 3 2 1 -1 -2 1 1 -0 1 1 -1 -1 -2 -2 -0 4
1 2 3 4 5 6 6 7 7 6 7 7 7 7 8 8 8 8 9 7 5 5 5 5 6 6 7 6 7 6 7 6 2 2 2 3 4 5 4 2 -0 -0 1 -0 3 2 2
-2 -3 -2 0 4 5 6 6 6 6 6 6 7 7 8 8 9 8 7 7 6 6 6 6 7 6 5 7 9 8 7 5 3 4 6 4 7 8 4 2 -0 1 -0 -2 -2 -0 2
-1 -1 -1 -3 -4 2 4 4 6 4 5 4 6 4 6 7 8 8 8 8 8 6 6 5 6 4 6 7 7 8 7 5 4 5 5 3 6 5 7 5 3 6 3 2 1 3 2
-3 -3 -3 -1 -0 -1 -3 0 2 3 3 3 5 4 4 5 6 7 7 7 8 8 6 4 5 6 6 8 7 7 7 5 4 4 5 5 7 5 5 3 3 3 3 2 3 3 3
-4 -3 -3 -1 -0 -1 -5 -8 -2 1 2 2 3 4 4 6 5 7 7 8 8 7 6 6 6 5 5 7 7 7 6 6 6 4 4 4 6 5 6 4 3 4 3 2 2 2 2
-3 -5 -4 -3 -6 -9 -11 -8 -2 -0 0 1 1 4 5 5 6 6 7 7 7 6 6 5 5 6 6 6 5 6 5 5 5 5 4 5 5 7 7 3 3 6 4 3 2 1 1
-2 -3 -4 -5 -4 -5 -6 -8 -2 0 0 -0 0 2 4 4 6 6 5 5 6 6 7 5 5 5 5 5 5 4 4 4 5 4 4 5 5 6 7 4 7 1 -3 -2 -0 -2 -2
-3 -2 -2 -4 -4 -5 -5 -6 -3 -0 1 1 -0 1 2 2 4 5 5 5 5 5 6 6 5 5 5 4 3 3 3 3 3 4 4 3 5 6 6 6 2 0 -3 -5 -3 -3 -7
-2 -2 -3 -3 -4 -4 -4 -4 -2 -1 1 1 2 2 2 4 3 3 4 5 6 6 2 1 4 5 4 2 3 5 5 4 5 4 4 4 4 5 6 6 4 -1 -5 -6 -5 1 -5
-4 -3 -2 -2 -3 -3 -4 -4 -2 -0 0 1 2 1 3 3 2 5 4 4 4 5 4 2 3 3 3 2 4 5 6 4 6 5 5 5 4 5 5 6 4 -3 -5 -6 -1 -1 -5
-4 -3 -2 -2 -2 -3 -6 -5 -1 0 0 1 1 2 2 3 2 3 4 5 5 3 3 1 1 0 1 3 4 5 6 5 4 3 4 4 5 5 5 6 6 -4 -4 -1 -2 -3 -4
-5 -2 -1 -1 -2 -4 -6 -4 -0 0 -0 1 2 1 0 1 2 1 2 2 4 4 3 1 3 1 1 3 3 4 5 5 4 6 -0 4 3 3 3 3 -2 -4 -4 -4 -4 -5 -6

GFSGBSN_850_dewp_216.txt.gz
Dewpoint
-2 -1 -1 -0 -0 0 0 0 1 0 0 -1 -2 -2 -3 -3 -3 -2 -1 1 3 3 3 3 3 3 3 2 3 2 2 2 1 0 0 0 0 -0 0 -0 -0 -1 -1 -1 -1 -2 -3
-2 -2 -1 -0 -0 0 0 0 0 0 -1 -0 -2 -3 -3 -4 -4 -3 -2 0 2 3 3 3 4 5 4 4 3 3 2 2 0 -0 -0 -0 -0 -0 -0 0 1 0 -0 -1 -2 -2 -2
-3 -3 -2 -1 -1 -1 -0 -0 -0 -0 -1 -1 -2 -3 -3 -4 -5 -4 -2 -1 1 2 3 4 4 5 4 4 4 0 2 1 -0 -1 -1 -1 -1 -1 -1 0 -0 -0 0 -1 -2 -2 -2
-3 -2 -2 -1 -1 -1 -1 -1 -1 -1 -1 -2 -2 -3 -4 -5 -5 -5 -4 -2 1 1 3 4 5 6 4 4 2 1 1 0 -1 -1 -1 -1 -1 -0 -0 -1 0 1 0 1 -2 -2 -3
-4 -4 -3 -2 -1 -2 -1 -2 -1 -2 -2 -2 -2 -3 -4 -4 -5 -5 -6 -4 -1 1 4 6 5 5 5 5 3 2 2 3 1 -0 0 -0 -0 0 0 1 2 1 3 1 -4 -4 -4
-0 -2 -2 -4 -4 -4 -4 -4 -3 -3 -3 -3 -2 -4 -3 -5 -5 -6 -6 -6 -2 4 6 5 6 5 2 4 4 4 3 2 1 1 1 1 0 1 1 2 4 2 -1 -3 -4 -6 -4
2 1 0 -0 -0 -1 -2 -3 -4 -3 -3 -4 -5 -4 -4 -4 -3 -6 -7 -5 6 4 6 5 3 3 4 3 4 5 4 2 2 2 2 1 3 4 2 2 2 -1 -3 -2 -3 -4 -3
6 3 3 1 1 1 0 0 -1 -0 -1 0 -1 -2 -3 -3 -3 -5 -6 4 7 7 7 5 3 4 4 5 5 4 -2 -0 2 4 2 2 4 2 1 1 -2 -3 -2 -1 -2 -4 -4
8 7 5 4 3 2 2 0 1 1 1 1 1 2 1 -1 -1 -4 -4 -2 9 8 7 6 3 5 3 5 1 -2 -3 -2 0 3 3 4 2 0 -1 -3 -2 -2 -1 -1 -2 -4 -4
9 9 9 7 5 4 5 3 1 2 2 3 2 2 3 2 1 -2 1 8 9 7 8 7 4 -1 -1 -3 -1 -2 -4 -3 -4 1 1 2 0 -2 -2 -2 -2 0 -2 -3 -3 -3 -1
9 10 10 9 8 6 5 6 6 6 4 3 3 4 4 4 1 7 8 8 7 8 4 -0 -1 -2 -2 -1 -2 -4 -3 -3 -2 -2 -2 0 -2 -1 -0 -2 -2 -0 -4 -4 -4 -3 -2
11 10 10 11 10 9 8 5 7 8 8 7 6 4 5 4 3 8 8 7 7 7 8 5 -0 -1 -1 -2 -3 -4 -4 -3 -3 -3 -3 -2 -3 -2 -2 -2 -3 -4 -3 -2 -2 -1 2
8 7 10 9 10 11 10 9 7 7 8 8 9 8 5 4 3 9 8 8 6 8 2 5 3 1 0 1 -1 -3 -2 -2 -2 1 2 1 0 -2 -3 -2 -3 -3 -0 3 5 4 4
7 7 6 9 9 9 10 10 10 9 7 8 8 9 8 4 5 6 8 8 8 5 6 3 4 3 2 0 0 -1 -2 -1 -2 -1 2 3 5 1 -2 -1 -1 -1 0 4 5 5 4
8 8 8 8 8 9 9 10 9 10 10 10 10 9 9 8 7 4 8 9 5 4 5 5 4 6 6 4 1 -0 -1 -1 -2 -1 2 6 5 1 -2 -3 -3 -1 -0 -2 2 2 4
4 5 7 9 9 10 10 10 10 9 10 10 10 10 9 8 7 9 8 6 5 3 4 5 6 5 7 6 4 3 3 1 -1 1 1 2 5 2 1 -2 -3 -2 -3 1 2 4 6
3 4 4 5 6 7 9 10 10 10 9 10 10 8 9 9 8 9 9 7 4 4 4 6 6 6 6 6 4 5 4 4 2 3 2 2 1 2 -0 1 2 1 -1 -1 0 4 4
2 3 4 4 5 6 6 7 8 9 10 10 8 7 8 9 9 8 8 6 5 4 4 5 6 6 7 6 6 6 6 4 3 4 4 2 4 5 2 1 1 2 3 1 3 4 3
-7 2 2 3 4 5 6 6 6 6 8 9 7 7 8 9 9 9 8 7 6 6 5 5 7 6 6 7 8 7 6 5 4 5 5 4 6 9 8 5 3 4 3 3 4 3 5
-1 -5 1 2 3 4 4 4 6 6 6 7 6 5 7 8 8 8 8 8 8 6 6 5 6 6 7 7 7 7 7 5 4 5 4 3 8 8 10 7 5 6 5 4 4 6 6
-6 -1 -2 -2 1 2 3 3 4 5 5 5 5 4 5 6 7 8 8 8 8 8 6 6 7 6 7 8 7 8 7 6 4 6 6 7 9 8 8 7 7 7 7 7 8 6 6
-2 -4 -2 -2 -2 -1 2 2 3 3 4 4 4 4 5 5 6 7 8 9 8 8 7 8 7 7 6 8 7 8 7 7 6 6 6 6 8 7 9 7 7 8 7 7 6 5 5
-1 -2 -3 -2 -2 -3 -3 1 0 2 3 2 3 4 4 4 6 7 7 7 8 7 7 7 7 7 7 7 5 5 5 6 6 6 7 6 6 6 9 7 7 8 7 6 5 5 5
-2 -1 -2 -3 -2 -2 -3 -2 -1 -1 0 1 2 3 4 5 5 6 6 6 6 7 8 7 7 8 7 7 6 6 6 6 7 6 5 5 5 5 7 7 8 3 1 3 5 4 3
-2 -1 -1 -3 -3 -1 -2 -3 -1 -1 -2 -0 1 2 3 4 4 5 5 5 5 5 7 7 8 7 7 7 4 7 4 5 5 6 6 5 5 6 6 7 6 4 2 1 4 2 1
-2 -1 -1 -2 -4 -2 -1 -2 -2 -2 -0 0 0 1 1 2 2 3 4 5 6 6 5 6 6 7 7 3 4 6 6 7 6 6 5 5 5 7 6 7 7 3 -4 -4 -3 2 -2
-1 -1 -0 -1 -3 -3 -1 -2 -4 -3 1 0 -0 -0 -0 -0 1 2 4 5 5 6 5 3 5 4 6 4 6 6 6 5 6 5 5 6 6 6 6 7 6 2 -2 -5 2 1 -3
-1 -1 -1 -1 -2 -3 -2 -2 -3 -2 -1 -1 -2 -1 -1 -0 -0 1 2 2 4 4 4 2 3 2 2 6 5 5 5 5 6 4 5 6 6 6 6 6 6 1 1 0 -0 -4 -5
-1 -1 -1 -1 -1 -3 -3 -2 -2 -3 -3 -3 -0 -1 0 0 0 -1 -1 1 2 3 4 3 3 1 3 4 4 4 4 4 5 6 3 6 5 5 5 4 1 -1 0 -2 -4 -4 -4

GFSGBSN_850_dewp_219.txt.gz
Dewpoint
-3 -2 -2 -2 -1 -1 -1 -1 -0 -0 1 0 -0 -2 -2 -3 -4 -4 -3 -1 0 2 2 3 2 2 3 2 3 3 3 3 0 0 0 -0 -0 0 0 -0 -0 -0 -1 -1 -1 -1 -2
-4 -2 -2 -2 -1 -1 -0 -0 0 0 0 0 -0 -2 -2 -4 -4 -4 -4 -2 -1 -0 2 3 3 3 4 3 3 4 3 2 1 -0 -1 -1 -0 -0 -0 -0 0 -0 0 -0 -1 -1 -2
-4 -3 -2 -1 -1 -1 -0 0 0 0 0 -0 -1 -1 -3 -3 -5 -5 -5 -4 -3 -2 1 2 2 4 5 2 4 3 1 -0 0 -1 -1 -1 -0 -1 -1 -0 -0 -0 1 -0 -1 -2 -2
-5 -4 -2 -2 -1 -0 -0 0 0 -0 -0 -0 -1 -1 -3 -4 -5 -6 -6 -6 -5 -4 -1 1 3 5 4 3 3 1 0 1 -0 -1 -0 -1 -1 -1 -0 -1 0 1 0 2 -2 -4 -3
-3 -4 -3 -2 -2 -1 -0 -0 -0 -0 -1 -0 -1 -2 -2 -3 -4 -6 -7 -7 -6 -5 -2 2 4 5 4 4 3 3 2 2 3 0 -0 0 0 0 0 2 2 1 3 2 -2 -4 -3
-3 -4 -3 -2 -2 -2 -1 -1 -0 -1 -1 -1 -1 -2 -3 -3 -5 -6 -7 -8 -7 -1 5 5 5 5 2 2 4 4 3 3 3 1 1 1 0 1 1 2 4 2 -1 -1 -4 -6 -4
1 -1 -3 -4 -3 -2 -2 -2 -2 -2 -2 -2 -3 -3 -3 -4 -4 -6 -7 -8 1 2 5 4 3 4 3 2 3 3 4 4 2 2 2 1 3 4 2 2 2 3 -1 -3 -3 -4 -4
5 2 1 -1 -2 -3 -3 -4 -4 -4 -4 -3 -4 -3 -3 -2 -3 -4 -5 -5 7 6 7 3 -1 3 3 4 5 5 2 -0 2 4 2 3 4 2 1 2 2 1 -2 -1 -2 -4 -4
7 6 5 3 2 1 0 -0 -1 -1 -1 1 -0 0 1 1 1 -2 -3 -4 4 8 7 6 3 4 3 5 6 2 -2 -1 2 4 3 4 2 0 2 1 -3 -3 -2 -1 -1 -4 -4
9 7 6 6 5 3 3 1 2 1 1 2 2 2 2 2 2 -0 -2 5 7 7 5 4 6 3 1 -1 -1 -2 -3 -3 -3 2 3 3 2 0 -2 -2 -2 -0 -2 -2 -3 -3 0
9 9 8 7 7 6 4 4 3 2 2 2 4 4 3 3 1 1 6 10 7 8 0 -5 0 -1 -2 -2 -2 -3 -3 -3 -2 -2 0 1 -1 1 1 -1 -3 -1 -4 -4 -4 -3 -2
11 10 9 9 9 9 8 5 6 5 4 4 4 6 6 4 4 5 8 7 7 6 7 1 -1 -1 -2 -2 -3 -4 -4 -3 -3 -3 -3 -2 -3 -2 -1 -2 -3 -4 -3 -1 -0 -1 2
8 8 11 10 10 10 10 9 8 7 6 7 7 7 6 4 3 7 8 7 7 6 2 1 2 1 -0 1 -1 -3 -2 -2 -2 0 1 0 0 -3 -3 -2 -3 -3 -1 4 4 4 4
9 8 10 9 10 10 10 10 10 9 8 7 9 9 8 6 4 6 8 7 8 3 3 3 3 1 2 1 -0 -1 -2 -1 -2 -1 1 3 4 1 -1 -0 0 -1 -0 4 6 5 4
7 8 7 9 7 8 10 9 10 11 10 8 8 10 9 8 6 4 8 9 5 4 3 4 4 4 4 4 1 -0 -1 -1 -2 -2 1 4 5 1 -2 -3 -2 -1 1 -1 1 2 4
5 5 8 8 5 7 7 5 8 10 11 10 9 9 9 9 8 7 8 6 5 1 3 4 6 5 6 6 3 2 1 -1 -2 -2 -2 1 5 1 1 -2 -3 -2 -2 2 2 5 6
4 4 4 7 8 8 8 6 7 9 10 10 10 9 9 7 9 8 7 6 4 2 3 5 4 5 6 5 4 4 4 2 1 2 0 1 2 3 0 2 3 1 -0 -1 1 3 5
1 3 4 4 5 7 8 7 8 8 9 10 9 9 9 9 8 8 8 5 3 3 1 5 5 4 6 5 5 5 5 3 2 2 4 2 3 5 4 -0 1 1 2 1 4 5 3
-1 -3 3 3 4 5 6 7 8 9 9 9 8 8 9 9 9 9 7 6 5 4 2 5 6 5 5 6 7 6 5 4 3 4 4 3 6 8 8 5 3 4 3 2 3 3 5
-10 -1 -3 0 3 4 5 6 6 8 9 9 8 6 8 9 8 8 8 8 7 5 4 3 4 6 6 7 6 6 7 5 5 5 4 3 7 7 9 7 5 6 4 4 4 6 6
-2 -6 -6 -2 -1 2 3 4 5 6 6 7 6 5 6 7 9 9 7 7 8 8 5 5 5 5 6 7 7 7 6 5 4 6 5 5 8 7 7 6 7 7 7 7 7 7 8
-5 -3 -3 -8 -0 -2 2 3 4 5 5 5 5 5 6 6 6 9 8 8 8 8 8 7 7 7 7 7 7 7 7 7 7 6 7 6 8 7 8 7 8 8 7 7 7 7 7
-2 -2 -1 -2 -7 -2 -2 1 3 3 4 3 4 4 5 6 7 8 8 8 8 6 6 6 7 7 8 7 5 5 5 6 7 7 7 7 8 8 10 7 8 9 8 7 7 6 6
-2 -2 -2 -1 -1 -2 -1 -2 0 2 3 3 3 4 5 5 6 7 7 7 6 7 8 7 6 7 6 6 6 6 7 7 8 7 6 7 7 7 9 8 9 6 3 5 6 6 5
-1 -1 -1 -2 -1 -1 -3 -1 -2 -1 1 2 1 3 3 5 5 5 6 6 6 6 7 7 7 7 7 7 5 7 5 6 6 7 7 7 7 7 8 8 7 6 4 3 5 3 3
-1 -1 -1 -1 -1 -1 -2 -3 -1 -2 -2 -0 -0 -0 0 1 4 4 5 5 7 7 6 6 7 8 8 4 4 8 8 8 8 7 6 7 7 8 6 7 8 3 -3 -0 -1 3 -0
-1 -0 -0 -1 -1 -1 -1 -3 -1 -0 -1 -1 -1 -1 -0 -0 1 3 4 5 5 5 6 4 6 5 7 4 6 6 7 6 7 7 6 7 7 8 8 8 6 3 -4 -3 3 3 -3
0 0 -0 -0 -2 -1 -0 -2 -3 -1 -1 0 0 -1 -1 -0 -0 1 2 3 5 5 5 3 5 3 3 6 6 5 5 5 6 5 6 7 7 7 7 8 8 2 -1 1 -0 -4 -4
-0 -0 -0 -1 -1 -0 -0 -2 -3 -1 -1 0 0 -0 -0 -1 -1 -0 0 1 2 2 4 4 4 2 4 5 4 4 4 4 5 7 3 6 6 6 6 6 1 1 1 -1 -2 -4 -5

GFSGBSN_850_dewp_222.txt.gz
Dewpoint
-5 -4 -3 -2 -2 -1 -0 -0 -1 -0 -0 0 -0 -0 -1 -2 -3 -4 -4 -3 -2 -1 0 1 1 2 1 2 3 3 2 3 2 0 -0 -0 -0 0 0 -0 -0 -0 -1 -1 -0 -1 -1
-5 -4 -3 -3 -2 -2 -1 -1 -1 -0 -0 0 0 -0 -1 -2 -3 -4 -4 -5 -4 -3 -1 0 1 2 3 4 2 3 0 1 1 -0 -1 -1 -1 -1 -0 -0 0 -0 0 -0 -1 -1 -1
-7 -5 -3 -3 -2 -2 -1 -1 -1 -0 0 0 0 -0 -1 -2 -3 -4 -5 -6 -6 -5 -4 -2 -0 1 4 1 2 4 -0 -0 -0 -0 -1 -1 -1 -0 -1 -1 -0 -0 1 -0 -1 -2 -3
-8 -6 -4 -3 -2 -2 -1 -1 -0 0 0 0 -0 0 -1 -2 -3 -4 -6 -7 -7 -7 -6 -4 -2 1 3 2 3 3 0 2 1 -1 -1 -0 -1 -0 -0 -0 0 1 0 2 -2 -4 -3
-7 -7 -5 -4 -2 -1 -1 -1 -0 0 1 0 0 0 -1 -2 -3 -5 -6 -8 -8 -8 -7 -4 1 4 3 3 4 2 1 1 3 3 1 -0 0 0 0 1 2 1 2 1 -1 -6 -4
-3 -5 -6 -4 -3 -2 -1 -1 -0 0 0 0 -0 -1 -1 -2 -3 -5 -7 -8 -8 -6 1 4 4 5 2 1 3 3 2 2 3 3 1 1 1 1 2 2 3 2 1 -1 -2 -5 -5
-2 -4 -3 -4 -4 -3 -1 -1 -1 -0 -0 -0 -0 -2 -2 -2 -4 -6 -7 -8 -2 -1 3 1 -1 4 1 1 1 2 2 3 3 1 3 1 3 4 2 2 2 3 3 2 -4 -4 -4
1 -0 -3 -3 -3 -3 -2 -1 -1 -1 -1 -1 -1 -2 -3 -4 -4 -4 -4 -5 6 5 7 -1 -2 -0 1 3 4 4 4 3 2 4 2 3 4 2 1 1 2 3 2 -1 -3 -3 -5
4 3 1 -1 -3 -3 -2 -2 -1 -1 -1 -2 -3 -2 -1 -1 -2 -2 -3 -4 3 9 7 4 2 3 3 4 5 4 0 -0 2 4 3 4 3 0 2 2 2 -2 -2 -2 -1 -4 -4
8 6 4 3 1 1 -0 -1 -2 -1 -2 -1 -1 1 2 1 1 -0 -1 -1 3 7 2 -2 5 5 2 5 0 0 -2 -2 -2 3 3 4 2 2 -0 1 -1 -1 -3 -2 -3 -3 1
10 9 8 6 4 3 3 2 1 2 2 2 3 3 3 3 2 -1 3 7 8 7 -1 -9 3 -1 1 -2 -2 -2 -3 -3 -2 -1 1 1 0 2 3 1 -3 -2 -2 -4 -4 -3 -2
10 11 10 8 7 6 5 5 3 3 3 4 4 5 5 4 3 3 7 8 7 4 4 -1 -1 -2 -2 -3 -2 -3 -3 -3 -3 -3 -3 -2 -3 -2 -0 -1 -3 -4 -3 -1 0 -1 2
8 9 10 10 9 8 7 7 5 5 5 5 5 5 5 3 2 4 7 7 6 4 -0 -3 2 0 -1 0 -1 -3 -2 -2 -1 0 0 -1 -1 -3 -3 -2 -3 -3 -1 4 5 4 4
6 4 7 9 10 10 9 9 8 7 6 7 6 7 7 4 4 5 8 7 8 3 2 1 2 1 1 1 -0 -1 -2 -1 -3 -1 1 3 3 1 -1 -1 1 -1 -0 4 6 5 4
5 5 5 8 8 9 10 10 9 10 9 7 8 9 9 7 6 5 7 8 5 3 1 2 4 3 3 2 1 -1 -1 -1 -2 -2 -0 3 3 1 -2 -3 -2 -1 1 -1 2 2 4
5 5 5 7 7 7 9 10 10 10 10 10 9 9 9 8 7 6 7 7 5 1 1 3 5 4 5 4 2 1 1 -1 -2 -2 -3 -0 3 1 1 -2 -3 -2 -2 1 2 5 7
4 4 6 7 6 7 8 7 8 10 10 10 9 9 9 8 9 8 7 7 5 1 1 4 3 4 5 4 3 3 2 0 -2 1 -2 0 2 2 0 2 2 -0 -0 -0 1 3 6
3 3 4 5 7 6 6 6 7 8 7 9 9 9 9 8 8 8 8 5 3 3 2 3 4 3 5 5 5 5 4 2 1 1 2 2 3 4 2 0 1 0 0 0 4 5 3
1 2 3 3 4 6 7 8 7 8 8 8 9 9 9 9 9 9 7 7 4 4 3 3 4 5 4 5 6 5 4 3 2 3 4 3 5 8 8 6 3 3 3 1 2 3 5
-6 -4 0 2 3 4 5 5 8 8 8 8 8 7 8 9 8 8 8 8 8 4 3 2 2 5 6 6 5 5 5 5 4 4 4 3 6 7 8 6 5 5 4 3 3 6 6
-4 -4 -10 -3 -1 3 4 4 5 6 7 7 8 6 7 7 9 8 8 7 8 8 4 2 3 2 4 5 6 6 5 5 4 5 5 5 7 7 6 6 6 6 6 4 5 5 6
-6 -5 -4 -6 -12 -3 -1 2 4 5 5 6 7 5 6 7 7 9 8 8 8 7 6 6 5 4 3 4 3 4 5 6 6 6 6 7 8 8 9 7 7 8 7 6 5 5 5
-4 -5 -5 -5 -4 -9 -8 -2 2 3 4 4 5 5 6 6 7 8 9 8 8 6 6 6 5 5 5 4 3 2 3 4 6 7 7 7 9 9 10 8 8 9 8 7 7 6 6
-0 -2 -2 -3 -4 -4 -4 -8 -2 2 3 3 4 4 5 6 7 8 7 7 7 7 7 6 6 6 5 5 5 6 6 7 7 7 7 7 8 9 10 9 10 7 5 5 6 6 5
-0 -2 -2 -2 -2 -1 -2 -2 -2 -2 1 2 3 3 4 4 5 6 6 6 7 7 7 6 7 6 6 6 6 8 5 6 7 8 8 7 8 9 9 9 8 6 4 5 7 6 5
-1 -1 -1 -1 -1 -1 -1 -1 -1 -1 -1 1 1 2 2 2 4 4 5 6 7 8 7 7 7 7 7 7 5 9 9 8 9 8 7 8 8 9 6 8 10 4 1 1 1 6 1
-1 -2 -2 -2 -2 -2 -1 -1 -1 -2 -1 -1 0 -0 -0 -0 1 3 4 5 5 7 6 5 6 6 7 6 7 7 9 7 9 8 7 8 8 9 9 8 7 4 -4 -0 5 4 -2
-2 -0 -1 -1 -1 -1 -1 -1 -1 -1 -2 0 -0 -1 -0 -1 -0 1 2 3 4 6 7 4 6 4 3 7 7 5 5 6 7 6 7 8 8 8 8 9 9 3 -3 2 1 -3 -4
-3 -2 -2 -1 -0 -0 -1 -1 -1 -0 -2 1 -0 -1 -1 -1 -1 -0 0 1 2 2 2 3 4 3 5 6 5 5 4 4 6 7 4 7 6 7 7 7 3 3 0 -3 -2 -3 -4